Regional Weather Roundup
Issued by NWS

Home | Current Version | Previous Version | Graphics & Text | Print | Product List | Glossary On
Versions: 1 2 3 4 5 6 7 8 9 10 11 12 13 14 15 16 17 18 19 20 21 22 23 24 25 26 27 28 29 30 31 32 33 34 35 36 37 38 39 40 41 42 43 44 45 46 47 48 49 50
000
ASUS45 KABQ 231201
RWRNM
NEW MEXICO REGIONAL WEATHER ROUNDUP
NATIONAL WEATHER SERVICE ALBUQUERQUE NM
600 AM MDT WED AUG 23 2017

NOTE: "FAIR" MEANS FEW OR NO CLOUDS BELOW 12,000 FEET AGL WITH NO
       SIGNIFICANT WEATHER OR OBSTRUCTIONS TO VISION.

      THIS PRODUCT IS RELEASED AS TWO VERSIONS.  ONE VERSION NEAR
      THE TOP OF THE HOUR CONTAINING PRELIMINARY DATA FROM ALBUQUERQUE
      AND OTHER STATIONS.  A FINAL VERSION WITH ADDITIONAL DATA IS
      ISSUED ABOUT 10 MINUTES AFTER THE HOUR.

NMZ501-503-504-510>518-231300-
NORTHWEST PLATEAU/NORTHCENTRAL MOUNTAINS

CITY           SKY/WX    TMP DP  RH WIND       PRES   REMARKS
FARMINGTON     FAIR      61  48  62 E6        30.27S
6HR MIN TEMP:  60; 6HR MAX TEMP:  71;

LOS ALAMOS     FAIR      57  50  78 CALM      30.40S
SANTA FE       FAIR      57  55  93 NE3       30.34F
6HR MIN TEMP:  57; 6HR MAX TEMP:  64; 6HR PCP: TRACE;

TAOS           FAIR      48  46  93 W10       30.43S
ANGEL FIRE     FOG       44  43  98 CALM      30.49S VSB 1/4

$$
NMZ402-403-502-505>509-231300-
WESTCENTRAL MOUNTAINS/SOUTHWEST MOUNTAINS

CITY           SKY/WX    TMP DP  RH WIND       PRES   REMARKS
GALLUP         FAIR      53  44  71 CALM      30.32S
6HR MIN TEMP:  51; 6HR MAX TEMP:  61;

GRANTS         FAIR      60  55  83 S9        30.35F
SILVER CITY    CLOUDY    64  54  71 W6        30.24R

$$
NMZ407-409-411-412-231300-
SOUTHERN DESERTS

CITY           SKY/WX    TMP DP  RH WIND       PRES   REMARKS
DEMING         CLOUDY    71  62  73 NE6       30.16R
6HR MIN TEMP:  70; 6HR MAX TEMP:  76;

LAS CRUCES     FAIR      72  61  68 S5        30.19R
HOLLOMAN AFB   MOCLDY    70  62  73 W3        30.18R
ALAMOGORDO     FAIR      66  63  88 E6        30.17S
T OR C         FAIR      71  61  70 N13       30.21R
6HR MIN TEMP:  71; 6HR MAX TEMP:  78; 6HR PCP: TRACE;


$$
NMZ519>523-231300-
CENTRAL VALLEYS/CENTRAL HIGHLANDS

CITY           SKY/WX    TMP DP  RH WIND       PRES   REMARKS
ALBUQUERQUE    FAIR      66  57  72 E8        30.28F
6HR MIN TEMP:  65; 6HR MAX TEMP:  71; 6HR PCP:  0.01;

DOUBLE EAGLE   CLEAR     61  55  82 NW5       30.32
CLINES CORNERS FOG       54  53  97 W8        30.38F VSB 3/4
6HR MIN TEMP:  53; 6HR MAX TEMP:  59;

BELEN          FAIR      64  61  91 W3        30.28S
6HR MIN TEMP:  64; 6HR MAX TEMP:  73;

SOCORRO        MOCLDY    68  57  68 NW9G17    30.25S
6HR MIN TEMP:  67; 6HR MAX TEMP:  74;


$$
NMZ524>526-539-540-231300-
SOUTHCENTRAL MOUNTAINS

CITY           SKY/WX    TMP DP  RH WIND       PRES   REMARKS
RUIDOSO        CLOUDY    57  57 100 CALM      30.41R

$$
NMZ527>531-231300-
NORTHEAST HIGHLANDS/NORTHEAST PLAINS

CITY           SKY/WX    TMP DP  RH WIND       PRES   REMARKS
LAS VEGAS      FAIR      51  49  92 VRB5      30.38R
6HR MIN TEMP:  50; 6HR MAX TEMP:  56; 6HR PCP:  0.03;

RATON          FAIR      48  47  96 N6        30.34R
6HR MIN TEMP:  48; 6HR MAX TEMP:  54;

CLAYTON        CLOUDY    61  61 100 E3        30.28S FOG
6HR MIN TEMP:  58; 6HR MAX TEMP:  63;


$$
NMZ532>537-231300-
EASTCENTRAL PLAINS

CITY           SKY/WX    TMP DP  RH WIND       PRES   REMARKS
SANTA ROSA     FAIR      63  61  94 CALM      30.25F
TUCUMCARI      CLOUDY    69  67  93 CALM      30.21R
6HR MIN TEMP:  67; 6HR MAX TEMP:  70;

CANNON AFB     FAIR      64  64 100 NW6       30.24S
6HR MIN TEMP:  64; 6HR MAX TEMP:  66;

CLOVIS AIRPORT CLOUDY    65  63  93 N5        30.24S

$$
NMZ028-029-538-231300-
SOUTHEAST PLAINS

CITY           SKY/WX    TMP DP  RH WIND       PRES   REMARKS
ROSWELL        FAIR      68  66  93 N9        30.19F
6HR MIN TEMP:  68; 6HR MAX TEMP:  72;

ARTESIA        FAIR      66  66 100 N7        30.19S
CARLSBAD       FAIR      68  67  96 N5        30.15S
6HR MIN TEMP:  68; 6HR MAX TEMP:  75;

HOBBS          CLOUDY    66  63  88 N8        30.18S


$$




USA.gov is the U.S. government's official web portal to all federal, state and local government web resources and services.